Regional Weather Roundup
Issued by NWS

Home | Current Version | Previous Version | Text Only | Print | Product List | Glossary Off
Versions: 1 2 3 4 5 6 7 8 9 10 11 12 13 14 15 16 17 18 19 20 21 22 23 24 25 26 27 28 29 30 31 32 33 34 35 36 37 38 39 40 41 42 43 44 45 46 47 48 49 50

604
ASUS44 KJAN 201910
RWRMS

MISSISSIPPI HOURLY WEATHER ROUNDUP
NATIONAL WEATHER SERVICE JACKSON MS
200 PM CDT MON OCT 20 2014

NOTE: "FAIR: INDICATES FEW OR NO CLOUDS BELOW 12,000 FEET WITH NO
SIGNIFICANT WEATHER AND/OR OBSTRUCTIONS TO VISIBILITY.

MSZ001>002-007>008-010>013-018>021-025>028-034>036-202000-
NORTHWEST MISSISSIPPI

CITY           SKY/WX    TMP DP  RH WIND       PRES   REMARKS
CLARKSDALE     FAIR      70  48  46 CALM      30.05F
CLEVELAND      FAIR      73  52  49 CALM      30.04F
GREENWOOD      SUNNY     72  48  42 VRB3      30.05F
GREENVILLE     SUNNY     73  48  41 NW5       30.04F
GRENADA          N/A    N/A N/A N/A MISG        N/A
OLIVE BRANCH   MOSUNNY   66  52  59 SW5       30.05F
OXFORD         FAIR      66  48  52 NW7       30.06F
TUNICA         CLEAR     70  50  49 CALM      30.05F
$$

MSZ003>006-009-014>017-022>024-029>033-037>039-202000-
NORTHEAST MISSISSIPPI

CITY           SKY/WX    TMP DP  RH WIND       PRES   REMARKS
COLUMBUS AFB   SUNNY     72  46  40 NW7       30.04F HAZE
CORINTH        FAIR      66  48  52 W7          N/A
GOLDN TRIANGLE SUNNY     73  48  40 NW7       30.04
TUPELO         MOSUNNY   72  48  42 VRB3      30.04F
$$

MSZ040-058-202000-
CENTRAL MISSISSIPPI

CITY           SKY/WX    TMP DP  RH WIND       PRES   REMARKS
JACKSON INTL   MOSUNNY   74  47  38 CALM      30.04F
JACKSON HAWKNS SUNNY     75  44  33 CALM      30.05F
MERIDIAN KEY   MOSUNNY   74  48  39 VRB3      30.04F
MERIDIAN NAS   MOSUNNY   73  44  35 N7        30.04F
RAYMOND        FAIR      75  68  78 N3        30.05F
VICKSBURG      MOSUNNY   74  50  42 N8        30.06F
$$

MSZ059>079-202000-
SOUTH MISSISSIPPI

CITY           SKY/WX    TMP DP  RH WIND       PRES   REMARKS
BROOKHAVEN     FAIR      73  48  40 NW7       30.06F
COLUMBIA         N/A    N/A N/A N/A MISG        N/A
HATTIESBURG    MOSUNNY   74  47  38 NW7       30.04F
MCCOMB         MOSUNNY   74  48  39 NE3       30.04F
NATCHEZ        SUNNY     73  50  43 N10       30.05F
PINE BELT      MOSUNNY   75  46  35 W3        30.06F
$$

MSZ080>082-202000-
COASTAL MISSISSIPPI

CITY           SKY/WX    TMP DP  RH WIND       PRES   REMARKS
BAY ST LOUIS   SUNNY     77  46  33 VRB5      30.02F
BILOXI         MOSUNNY   78  49  36 SW5       30.01F
PASCAGOULA     MOSUNNY   79  51  37 CALM      30.01F
GULFPORT       MOSUNNY   77  49  37 CALM      30.01F
$$



USA.gov is the U.S. government's official web portal to all federal, state and local government web resources and services.